sat.trackr.live / text

‹ back to catalog

TIANQI-38

NORAD 67477 · 2026-010B

PAYLOAD ACTIVE UNKNOWN

§ Identity

Operator
Country
PRC
Launch date
2026-01-15
Launch site
YSLA
Launch vehicle
Mass (kg)
RCS (m²)

External: N2YO · Heavens-Above · Gunter

§ Orbital elements

Epoch: 2026-09-20T06:26:48.801696Z

Period
102.92 min
Inclination
44.9798°
Eccentricity
0.0009106
Mean motion
13.99185947 rev/d
Perigee alt
890.0 km
Apogee alt
903.2 km
Semi-major
7,274.8 km
B*
8.1568e-5
RAAN
18.4217°
Arg perigee
65.9866°
Mean anomaly
294.1919°
Rev number
3,471

§ Raw data

TIANQI-381 67477U 26010B   26263.26862039 -.00000010  00000+0  81568-4 0  99982 67477  44.9798  18.4217 0009106  65.9866 294.1919 13.99185947 34719

JSON: /api/v1/satellites/67477 · /tle

For live sub-satellite position, see the globe view (requires WebGL).

§ Visibility from observer

Set your observer location to see the next 7 days of passes ≥ 10°. The values pass through the URL so the page stays shareable.

No JS? Fill the form by hand. The geolocation button needs JavaScript.